Time,TemperatureF,DewpointF,PressureIn,WindDirection,WindDirectionDegrees,WindSpeedMPH,WindSpeedGustMPH,Humidity,HourlyPrecipIn,Conditions,Clouds,dailyrainin,SoftwareType,DateUTC
2013-07-29 00:05:00,65.0,64.4,29.91,SSE,157,0.0,0.0,98,0.00,,,0.01,Wunderground v.1.15,2013-07-29 04:05:00,
2013-07-29 00:15:00,65.0,64.4,29.91,SSE,157,0.0,0.0,98,0.00,,,0.01,Wunderground v.1.15,2013-07-29 04:15:00,
2013-07-29 00:26:00,64.8,64.2,29.91,SSE,157,0.0,0.0,98,0.00,,,0.01,Wunderground v.1.15,2013-07-29 04:26:00,
2013-07-29 00:36:00,64.7,64.1,29.92,SSW,194,1.0,1.0,98,0.00,,,0.01,Wunderground v.1.15,2013-07-29 04:36:00,
2013-07-29 00:56:00,64.8,64.2,29.92,SSW,194,0.0,0.0,98,0.00,,,0.01,Wunderground v.1.15,2013-07-29 04:56:00,
2013-07-29 01:05:00,64.8,64.2,29.92,SSW,194,0.0,0.0,98,0.00,,,0.01,Wunderground v.1.15,2013-07-29 05:05:00,
2013-07-29 01:36:00,64.3,63.7,29.92,SSE,155,1.0,1.0,98,0.00,,,0.01,Wunderground v.1.15,2013-07-29 05:36:00,
2013-07-29 01:45:00,64.3,63.7,29.91,SSE,155,0.0,1.0,98,0.00,,,0.01,Wunderground v.1.15,2013-07-29 05:45:00,
2013-07-29 01:56:00,64.5,63.9,29.91,SSE,155,0.0,0.0,98,0.00,,,0.01,Wunderground v.1.15,2013-07-29 05:56:00,
2013-07-29 02:36:00,64.3,64.0,29.91,SSE,155,0.0,0.0,99,0.00,,,0.11,Wunderground v.1.15,2013-07-29 06:36:00,
2013-07-29 02:56:00,64.3,64.0,29.91,SSE,155,1.0,1.0,99,0.00,,,0.11,Wunderground v.1.15,2013-07-29 06:56:00,
2013-07-29 03:06:00,64.3,64.0,29.91,SSE,155,0.0,0.0,99,0.00,,,0.11,Wunderground v.1.15,2013-07-29 07:06:00,
2013-07-29 03:15:00,64.2,63.9,29.91,SSE,155,0.0,0.0,99,0.00,,,0.11,Wunderground v.1.15,2013-07-29 07:15:00,
2013-07-29 03:25:00,64.0,63.7,29.91,SSE,155,1.0,1.0,99,0.00,,,0.11,Wunderground v.1.15,2013-07-29 07:25:00,
2013-07-29 03:35:00,63.9,63.6,29.91,SSE,155,2.0,2.0,99,0.00,,,0.11,Wunderground v.1.15,2013-07-29 07:35:00,
2013-07-29 03:45:00,63.9,63.6,29.91,SSE,155,1.0,1.0,99,0.00,,,0.11,Wunderground v.1.15,2013-07-29 07:45:00,
2013-07-29 03:55:00,63.9,63.6,29.91,SSE,155,0.0,0.0,99,0.00,,,0.11,Wunderground v.1.15,2013-07-29 07:55:00,
2013-07-29 04:06:00,63.7,63.4,29.91,SSE,155,1.0,1.0,99,0.00,,,0.11,Wunderground v.1.15,2013-07-29 08:06:00,
2013-07-29 04:16:00,63.7,63.4,29.92,SSE,155,1.0,1.0,99,0.00,,,0.11,Wunderground v.1.15,2013-07-29 08:16:00,
2013-07-29 04:25:00,63.5,63.2,29.92,SSE,155,1.0,1.0,99,0.00,,,0.11,Wunderground v.1.15,2013-07-29 08:25:00,
2013-07-29 04:35:00,63.5,63.2,29.92,SSE,155,0.0,3.0,99,0.00,,,0.11,Wunderground v.1.15,2013-07-29 08:35:00,
2013-07-29 04:45:00,63.5,63.2,29.92,SSE,155,1.0,2.0,99,0.00,,,0.11,Wunderground v.1.15,2013-07-29 08:45:00,
2013-07-29 05:05:00,63.5,63.2,29.91,SSE,155,0.0,0.0,99,0.00,,,0.11,Wunderground v.1.15,2013-07-29 09:05:00,
2013-07-29 05:15:00,63.4,63.1,29.91,SSE,155,0.0,0.0,99,0.00,,,0.11,Wunderground v.1.15,2013-07-29 09:15:00,
2013-07-29 05:35:00,63.2,62.9,29.92,SSE,155,0.0,4.0,99,0.00,,,0.11,Wunderground v.1.15,2013-07-29 09:35:00,
2013-07-29 06:56:00,63.5,63.2,29.93,SSE,155,0.0,0.0,99,0.00,,,0.11,Wunderground v.1.15,2013-07-29 10:56:00,
2013-07-29 07:15:00,63.5,63.2,29.92,SSE,155,1.0,1.0,99,0.00,,,0.11,Wunderground v.1.15,2013-07-29 11:15:00,
2013-07-29 07:36:00,63.7,63.4,29.92,SSE,155,0.0,0.0,99,0.00,,,0.11,Wunderground v.1.15,2013-07-29 11:36:00,
2013-07-29 07:46:00,63.5,63.2,29.93,SSE,155,0.0,0.0,99,0.00,,,0.11,Wunderground v.1.15,2013-07-29 11:46:00,
2013-07-29 07:56:00,63.5,63.2,29.93,SSE,155,0.0,0.0,99,0.00,,,0.11,Wunderground v.1.15,2013-07-29 11:56:00,
2013-07-29 08:05:00,63.7,63.4,29.93,SSE,155,1.0,1.0,99,0.00,,,0.11,Wunderground v.1.15,2013-07-29 12:05:00,
2013-07-29 08:36:00,64.0,63.7,29.93,SE,136,1.0,1.0,99,0.00,,,0.11,Wunderground v.1.15,2013-07-29 12:36:00,
2013-07-29 08:46:00,64.3,64.0,29.94,South,177,1.0,1.0,99,0.00,,,0.11,Wunderground v.1.15,2013-07-29 12:46:00,
2013-07-29 08:56:00,64.5,64.2,29.94,SE,144,0.0,0.0,99,0.00,,,0.11,Wunderground v.1.15,2013-07-29 12:56:00,
2013-07-29 09:45:00,64.7,64.4,29.94,SSE,152,1.0,4.0,99,0.00,,,0.11,Wunderground v.1.15,2013-07-29 13:45:00,
2013-07-29 11:15:00,68.3,68.0,29.94,SE,144,3.0,8.0,99,0.00,,,0.11,Wunderground v.1.15,2013-07-29 15:15:00,
2013-07-29 11:36:00,70.8,66.4,29.93,East,82,2.0,2.0,86,0.00,,,0.11,Wunderground v.1.15,2013-07-29 15:36:00,
2013-07-29 11:46:00,72.0,66.2,29.93,SSE,148,2.0,2.0,82,0.00,,,0.11,Wunderground v.1.15,2013-07-29 15:46:00,
2013-07-29 11:55:00,72.1,66.6,29.93,SSE,147,2.0,2.0,83,0.00,,,0.11,Wunderground v.1.15,2013-07-29 15:55:00,
2013-07-29 12:26:00,72.0,66.2,29.93,SE,134,2.0,2.0,82,0.00,,,0.11,Wunderground v.1.15,2013-07-29 16:26:00,
2013-07-29 13:15:00,75.4,66.9,29.91,SE,144,4.0,5.0,75,0.00,,,0.11,Wunderground v.1.15,2013-07-29 17:15:00,
2013-07-29 13:35:00,76.7,66.6,29.91,South,170,5.0,5.0,71,0.00,,,0.11,Wunderground v.1.15,2013-07-29 17:35:00,
2013-07-29 13:45:00,77.0,66.0,29.90,SE,129,4.0,4.0,69,0.00,,,0.11,Wunderground v.1.15,2013-07-29 17:45:00,
2013-07-29 13:55:00,76.8,66.3,29.90,SE,139,4.0,12.0,70,0.00,,,0.11,Wunderground v.1.15,2013-07-29 17:55:00,
2013-07-29 14:25:00,77.0,65.2,29.89,SE,138,3.0,3.0,67,0.00,,,0.11,Wunderground v.1.15,2013-07-29 18:25:00,
2013-07-29 15:25:00,77.4,63.8,29.87,SE,124,2.0,6.0,63,0.00,,,0.11,Wunderground v.1.15,2013-07-29 19:25:00,
2013-07-29 16:06:00,72.8,62.8,29.89,WNW,284,4.0,4.0,71,0.00,,,0.11,Wunderground v.1.15,2013-07-29 20:06:00,
2013-07-29 16:36:00,68.9,58.7,29.91,WNW,284,2.0,2.0,70,0.00,,,0.11,Wunderground v.1.15,2013-07-29 20:36:00,
2013-07-29 16:45:00,68.3,57.7,29.92,WNW,296,2.0,2.0,69,0.00,,,0.11,Wunderground v.1.15,2013-07-29 20:45:00,
2013-07-29 16:55:00,68.3,57.7,29.92,West,271,1.0,1.0,69,0.00,,,0.11,Wunderground v.1.15,2013-07-29 20:55:00,
2013-07-29 17:16:00,68.8,62.7,29.91,West,271,0.0,0.0,81,0.00,,,0.12,Wunderground v.1.15,2013-07-29 21:16:00,
2013-07-29 17:26:00,69.9,61.2,29.91,West,271,0.0,0.0,74,0.00,,,0.12,Wunderground v.1.15,2013-07-29 21:26:00,
2013-07-29 17:36:00,71.3,60.2,29.90,West,271,0.0,0.0,68,0.00,,,0.12,Wunderground v.1.15,2013-07-29 21:36:00,
2013-07-29 17:45:00,71.8,59.8,29.90,West,271,0.0,0.0,66,0.00,,,0.12,Wunderground v.1.15,2013-07-29 21:45:00,
2013-07-29 17:56:00,71.1,60.0,29.90,West,271,0.0,0.0,68,0.00,,,0.12,Wunderground v.1.15,2013-07-29 21:56:00,
2013-07-29 18:16:00,71.8,61.5,29.88,West,271,0.0,2.0,70,0.00,,,0.12,Wunderground v.1.15,2013-07-29 22:16:00,
2013-07-29 18:35:00,71.8,61.9,29.89,West,271,1.0,2.0,71,0.00,,,0.12,Wunderground v.1.15,2013-07-29 22:35:00,
2013-07-29 19:05:00,70.3,62.4,29.92,SSE,147,4.0,4.0,76,0.00,,,0.12,Wunderground v.1.15,2013-07-29 23:05:00,
2013-07-29 19:15:00,69.3,62.9,29.93,SE,130,3.0,3.0,80,0.00,,,0.12,Wunderground v.1.15,2013-07-29 23:15:00,
2013-07-29 19:26:00,68.1,62.7,29.93,East,88,3.0,4.0,83,0.00,,,0.12,Wunderground v.1.15,2013-07-29 23:26:00,
2013-07-29 19:35:00,67.1,62.8,29.93,ENE,78,3.0,3.0,86,0.00,,,0.12,Wunderground v.1.15,2013-07-29 23:35:00,
2013-07-29 19:46:00,66.3,62.3,29.94,ESE,109,2.0,2.0,87,0.00,,,0.12,Wunderground v.1.15,2013-07-29 23:46:00,
2013-07-29 19:56:00,65.6,61.9,29.94,SE,138,3.0,3.0,88,0.00,,,0.12,Wunderground v.1.15,2013-07-29 23:56:00,
2013-07-29 20:05:00,65.0,62.3,29.94,ESE,103,1.0,3.0,91,0.00,,,0.12,Wunderground v.1.15,2013-07-30 00:05:00,
2013-07-29 20:55:00,63.7,62.5,29.96,East,96,0.0,0.0,96,0.00,,,0.12,Wunderground v.1.15,2013-07-30 00:55:00,
2013-07-29 21:16:00,63.2,62.0,29.97,East,95,0.0,0.0,96,0.00,,,0.12,Wunderground v.1.15,2013-07-30 01:16:00,
2013-07-29 22:05:00,62.6,61.4,29.97,East,95,0.0,1.0,96,0.00,,,0.12,Wunderground v.1.15,2013-07-30 02:05:00,
2013-07-29 22:15:00,62.4,61.2,29.97,East,95,0.0,0.0,96,0.00,,,0.12,Wunderground v.1.15,2013-07-30 02:15:00,
2013-07-29 22:35:00,61.6,60.4,29.97,East,95,0.0,0.0,96,0.00,,,0.12,Wunderground v.1.15,2013-07-30 02:35:00,
2013-07-29 22:55:00,61.6,60.4,29.97,East,95,0.0,0.0,96,0.00,,,0.12,Wunderground v.1.15,2013-07-30 02:55:00,
2013-07-29 23:05:00,61.3,60.2,29.96,East,95,0.0,0.0,96,0.00,,,0.12,Wunderground v.1.15,2013-07-30 03:05:00,
2013-07-29 23:15:00,61.3,60.2,29.96,East,95,0.0,0.0,96,0.00,,,0.12,Wunderground v.1.15,2013-07-30 03:15:00,
2013-07-29 23:26:00,61.3,60.4,29.96,East,96,0.0,0.0,97,0.00,,,0.12,Wunderground v.1.15,2013-07-30 03:26:00,
2013-07-29 23:36:00,60.7,59.6,29.96,East,96,0.0,0.0,96,0.00,,,0.12,Wunderground v.1.15,2013-07-30 03:36:00,
2013-07-29 23:46:00,60.2,59.1,29.97,East,95,0.0,0.0,96,0.00,,,0.12,Wunderground v.1.15,2013-07-30 03:46:00,
2013-07-29 23:55:00,60.1,59.0,29.97,East,95,0.0,0.0,96,0.00,,,0.12,Wunderground v.1.15,2013-07-30 03:55:00,